Find Starlink 35918

NORAD ID: 66643 Int'l Des: 2025-271 Owner: SPXS Country: US Constellation: starlink operational
LEOCIRCULAR

当前视图

正在加载3D地球...

About Starlink 35918

Starlink 35918 (NORAD 66643) is a starlink constellation satellite (v2 mini) launched Nov 23, 2025 by SPXS of US. It operates in LEO, CIRCULAR orbit with a mass of 575.00 kg.

关于 Starlink 35918

正在加载描述...

即将过境

Passes for default location (London). Set your location on the main map for personalized predictions.

高度历史

Loading altitude history...

两行轨道根数

1 66643U 25271AC 26195.22277323 .00008520 00000-0 26305-3 0 9997
2 66643 53.1579 269.0676 0001250 94.1441 265.9705 15.34396711 36984
Epoch: Jul 14, 2026 • Age: 8 hours

当前状态

高度 464.0 km
远地点 / 近地点 N/A
速度 7.64 km/s
星下点 30.27°N, 160.9°E
发射日期 Nov 23, 2025
运行时间 0.6 years
类型 internet

技术详情

分类 Payload
质量 575.00 kg
干质量 530.00 kg
总质量 575.00 kg
长度 0.30 m
直径 4.10 m
跨度 29.00 m
形状 Box + pan
制造商 SPXS
平台类型 Starlink V2MO
阶段状态 In Orbit
所有者/国家 SPXS/US

Most Searched